Location: Gugi
(45.4667°N, 11.1000°E)
Time: 08:14:56
(UTC+00:00)

Cosmos 1151 Rocket - Pass Details

Date: 17 November 2019
Orbit: 593 x 615 km, 82.5° (Epoch: 07 December)

Event Time Altitude Azimuth Distance (km) Brightness Sun altitude
Rises 16:53:51 0° 163° (SSE) 2,860 6.5 -12.3°
Reaches altitude 10° 16:56:12 10° 154° (SSE) 1,964 5.5 -12.7°
Maximum altitude 17:00:05 33° 90° (E) 1,050 3.7 -13.4°
Drops below altitude 10° 17:04:01 10° 27° (NNE) 1,986 5.3 -14.0°
Enters shadow 17:04:03 10° 27° (NNE) 1,999 5.3 -14.0°
